Deming, NM

10:18 PM MDT on October 19, 2017 (GMT -0600)
Deming Municipal

Weather History for KDMN - March, 2014

Change the Weather History Date:

Sunday, March 9, 2014

  Actual Average Record
Temperature  
Mean Temperature 47 °F 50 °F  
Max Temperature 61 °F 66 °F 86 °F (1989)
Min Temperature 33 °F 34 °F 17 °F (1964)
Degree Days  
Heating Degree Days 18    
Moisture  
Dew Point 22 °F    
Average Humidity 42    
Maximum Humidity 64    
Minimum Humidity 19    
Precipitation  
Precipitation 0.00 in 0.02 in 0.39 in (1968)
Month to date precipitation 0.38 0.18  
Year to date precipitation 0.38 1.38  
Sea Level Pressure  
Sea Level Pressure 30.21 in    
Wind  
Wind Speed 7 mph (ENE)    
Max Wind Speed 20 mph    
Max Gust Speed 26 mph    
Visibility 10 miles    
Events      
T = Trace of Precipitation, MM = Missing Value Source: NWS Daily Summary

Daily Weather History Graph

Daily Weather History Graph

Search for Another Location

Airport or City:

Trip Planner

Search our weather history database for the weather conditions in past years. The results will help you decide how hot, cold, wet, or windy it might be!

Date:

Astronomy

Mar. 09, 2014 Rise Set
Actual Time 7:28 AM MDT 7:14 PM MDT
Civil Twilight 7:04 AM MDT 7:39 PM MDT
Nautical Twilight 6:35 AM MDT 8:07 PM MDT
Astronomical Twilight 6:07 AM MDT 8:35 PM MDT
Moon 1:24 PM MDT (3/9) 3:42 AM MDT (3/9)
Length of Visible Light 12h 34m
Length of Day
11h 46m
First Quarter, 61% of the Moon is Illuminated
Mar 9
First Quarter
Mar 16
Full
Mar 23
Last Quarter
Mar 30
New
Apr 7
First Quarter

Hourly Weather History & Observations

Time (MDT) Temp. Windchill Dew Point Humidity Pressure Visibility Wind Dir Wind Speed Gust Speed Precip Events Conditions
12:53 AM 37.9 °F 34.4 °F 27.0 °F 65% 30.25 in 10.0 mi ENE 4.6 mph - N/A   Clear
1:53 AM 37.0 °F 31.0 °F 24.1 °F 59% 30.23 in 10.0 mi NE 8.1 mph - N/A   Clear
3:53 AM 33.1 °F 28.7 °F 23.0 °F 66% 30.24 in 10.0 mi East 4.6 mph - N/A   Clear
4:53 AM 34.0 °F 28.8 °F 23.0 °F 64% 30.25 in 10.0 mi East 5.8 mph - N/A   Clear
5:53 AM 34.0 °F 28.0 °F 23.0 °F 64% 30.27 in 10.0 mi NE 6.9 mph - N/A   Clear
6:53 AM 37.9 °F 31.5 °F 24.1 °F 57% 30.27 in 10.0 mi NE 9.2 mph - N/A   Clear
7:53 AM 37.9 °F 31.5 °F 24.1 °F 57% 30.29 in 10.0 mi NE 9.2 mph - N/A   Clear
8:53 AM 44.1 °F 37.4 °F 25.0 °F 47% 30.29 in 10.0 mi NE 13.8 mph - N/A   Clear
9:53 AM 44.1 °F 37.4 °F 24.1 °F 45% 30.29 in 10.0 mi NE 13.8 mph - N/A   Clear
10:53 AM 50.0 °F - 24.1 °F 36% 30.28 in 10.0 mi ENE 8.1 mph - N/A   Clear
11:53 AM 54.0 °F - 24.1 °F 31% 30.25 in 10.0 mi East 9.2 mph - N/A   Clear
12:53 PM 55.9 °F - 21.9 °F 27% 30.24 in 10.0 mi ENE 9.2 mph 21.9 mph N/A   Clear
1:53 PM 57.0 °F - 21.9 °F 26% 30.21 in 10.0 mi SE 9.2 mph - N/A   Clear
2:53 PM 57.9 °F - 19.9 °F 23% 30.17 in 10.0 mi ESE 3.5 mph - N/A   Clear
3:53 PM 61.0 °F - 19.9 °F 21% 30.15 in 10.0 mi East 10.4 mph - N/A   Clear
4:53 PM 60.1 °F - 19.0 °F 20% 30.14 in 10.0 mi Variable 4.6 mph - N/A   Clear
5:53 PM 60.1 °F - 17.1 °F 19% 30.12 in 10.0 mi ESE 5.8 mph - N/A   Clear
6:53 PM 57.0 °F - 19.0 °F 23% 30.11 in 10.0 mi ESE 6.9 mph - N/A   Clear
7:53 PM 52.0 °F - 19.0 °F 27% 30.13 in 10.0 mi Calm Calm - N/A   Clear
8:53 PM 48.0 °F - 21.0 °F 34% 30.14 in 10.0 mi South 4.6 mph - N/A   Clear
9:53 PM 46.0 °F 43.9 °F 21.9 °F 39% 30.16 in 10.0 mi SW 4.6 mph - N/A   Clear
10:53 PM 43.0 °F 38.8 °F 21.0 °F 42% 30.17 in 10.0 mi NW 6.9 mph - N/A   Clear
11:53 PM 41.0 °F 37.1 °F 21.0 °F 45% 30.17 in 10.0 mi NW 5.8 mph - N/A   Clear
12:53 AM 37.9 °F 35.5 °F 19.9 °F 48% 30.16 in 10.0 mi NW 3.5 mph - N/A   Clear